Location: *
(60.1759°S, 155.0663°W)
Time: 14:47:13
(UTC+00:00)

CZ-4B R/B - Pass Details

Date: 17 September 2019
Orbit: 393 x 471 km, 97.6° (Epoch: 15 October)

Event Time Altitude Azimuth Distance (km) Brightness Sun altitude
Rises 15:01:53 0° 166° (SSE) 2,394 5.5 -10.9°
Reaches altitude 10° 15:03:54 10° 170° (S) 1,533 4.4 -10.6°
Maximum altitude 15:07:06 55° 248° (WSW) 532 1.5 -10.3°
Drops below altitude 10° 15:10:22 10° 326° (NW) 1,554 3.7 -9.9°
Enters shadow 15:11:04 - 328° (NNW) 1,850 4.1 -9.8°
